Вернуться в каталог

STARLINK-36786

АктивенСвязьVLEO
NORAD 67872·PAYLOAD·🇺🇸 United States

Запущен Feb 20, 2026 с Vandenberg Space Force Base

Loading…

Ближайшие Пролёты (ближайшие 24 часа)

TLE

СвежийSource: CelesTrak SupGP

Эпоха: Sep 14, 2026, 22:40 UTC

1 67872C 26034Y   26257.94493056  .00013673  00000+0  43991-3 0  2572
2 67872  53.1588  43.7667 0001131  80.3417 194.2490 15.31679366    11

Отслеживайте STARLINK-36786 в реальном времени с AllMySat

Download on the App Store